Location: Arroyo Retuerta
(40.5469°N, 4.3534°W)
Time: 11:33:10
(UTC+00:00)

STARLINK-1110 - Pass Details

Date: 01 June 2020
Orbit: 548 x 550 km, 53.0° (Epoch: 06 July)

Event Time Altitude Azimuth Distance (km) Brightness Sun altitude
Rises 20:37:30 0° 311° (NW) 2,721 9.6 -9.4°
Reaches altitude 10° 20:39:46 10° 316° (NW) 1,826 7.9 -9.7°
Maximum altitude 20:43:51 55° 34° (NE) 667 4.1 -10.3°
Enters shadow 20:47:19 14° 111° (ESE) 1,593 5.4 -10.8°
